Stations météo

Publicité
Mont-De-Marsan, France (7607): Température de l'air & dewpoint: 14.09.2020 22:00:00 - 20.09.2020 22:00:00 (CEST)Mont-De-Marsan, France (7607): Température de l'air 5cm: 14.09.2020 22:00:00 - 20.09.2020 22:00:00 (CEST)Mont-De-Marsan, France (7607): Température de l'air -20cm & Température de l'air -100cm: 14.09.2020 22:00:00 - 20.09.2020 22:00:00 (CEST)Mont-De-Marsan, France (7607): Vitesse du vent & gusts: 14.09.2020 22:00:00 - 20.09.2020 22:00:00 (CEST)Mont-De-Marsan, France (7607): Direction du vent: 14.09.2020 22:00:00 - 20.09.2020 22:00:00 (CEST)Mont-De-Marsan, France (7607): reduced air pressure: 14.09.2020 22:00:00 - 20.09.2020 22:00:00 (CEST)Mont-De-Marsan, France (7607): visibility: 14.09.2020 22:00:00 - 20.09.2020 22:00:00 (CEST)Mont-De-Marsan, France (7607): Ensoleillement: 14.09.2020 22:00:00 - 20.09.2020 22:00:00 (CEST)Mont-De-Marsan, France (7607): Quantités de précipitations: 14.09.2020 22:00:00 - 20.09.2020 22:00:00 (CEST)
Date & Time tt [°C] td [°C] tt 5cm [°C] tt -20cm [°C] tt -100cm [°C] ff [km/h] ff [knt] fx [km/h] fx [knt] dd ppp [hPa] vv [km] sd [min] rr [mm]
20.09.2020 22:00:00 18,8 17,1 17,5 22,4 21,5 6 3 11 6 SW 1017,3 44 0 0,0
20.09.2020 21:00:00 18,5 16,3 17,4 22,4 21,5 8 5 24 13 WNW 1016,5 57 0 0,0
20.09.2020 20:00:00 19,9 17,1 19,3 22,3 21,5 13 7 28 15 W 1015,7 57 28 0,0
20.09.2020 19:00:00 21,7 17,7 21,2 22,2 21,5 14 8 25 13 WSW 1015,3 60 43 0,0
20.09.2020 18:00:00 21,7 17,5 22,1 22,0 21,5 15 8 26 14 SW 1015,1 20 46 0,0
20.09.2020 17:00:00 21,0 17,8 20,2 21,9 21,5 15 8 26 14 WSW 1015,1 25 36 0,0
20.09.2020 16:00:00 19,8 17,9 20,0 21,8 21,5 13 7 25 13 WSW 1015,3 9 0 0,2
20.09.2020 15:00:00 19,9 18,0 20,0 21,7 21,5 14 8 29 16 WSW 1015,4 12 0 0,6
20.09.2020 14:00:00 21,5 18,3 22,4 21,6 21,5 15 8 29 16 WSW 1015,4 39 11 0,0
20.09.2020 13:00:00 20,2 18,3 20,6 21,6 21,5 12 6 29 16 WSW 1015,3 40 4 0,0
20.09.2020 12:00:00 19,9 18,0 19,0 21,6 21,5 16 9 36 19 SW 1015,3 27 9 0,2
20.09.2020 11:00:00 19,6 17,4 19,4 21,7 21,5 17 9 29 16 WSW 1015,2 16 9 0,0
20.09.2020 10:00:00 19,1 17,6 18,0 21,8 21,5 16 8 31 17 WSW 1014,9 29 27 0,0
20.09.2020 09:00:00 17,9 16,6 16,7 21,9 21,5 12 7 23 12 SW 1014,6 51 4 0,2
20.09.2020 08:00:00 17,2 15,9 16,1 22,0 21,5 13 7 24 13 WSW 1014,3 17 0 0,0
20.09.2020 07:00:00 17,1 15,4 16,2 22,2 21,5 13 7 25 13 SW 1014,1 60 0 0,4
20.09.2020 06:00:00 17,5 15,8 16,3 22,3 21,5 10 5 18 10 SSW 1014,1 60 0 0,0
20.09.2020 05:00:00 17,0 15,7 16,3 22,4 21,5 6 4 26 14 S 1014,3 8 0 3,6
20.09.2020 04:00:00 17,5 16,0 16,4 22,5 21,6 7 4 16 9 SSW 1014,3 60 0 0,0
20.09.2020 03:00:00 17,6 16,5 16,8 22,6 21,5 5 3 13 7 SSE 1014,5 60 0 0,0
20.09.2020 02:00:00 17,4 16,4 16,6 22,8 21,6 5 3 9 5 S 1014,3 37 0 0,0
20.09.2020 01:00:00 17,3 16,2 16,5 22,9 21,6 6 3 18 10 SSW 1014,6 47 0 0,2
20.09.2020 00:00:00 17,5 16,2 16,7 23,0 21,6 10 5 19 11 SW 1014,4 60 0 0,0
19.09.2020 23:00:00 17,5 16,4 15,9 23,1 21,6 3 1 7 4 SSW 1014,6 17 0 0,0
19.09.2020 22:00:00 17,3 16,2 16,3 23,1 21,6 0 0 9 5 N 1014,3 8 0 0,0
19.09.2020 21:00:00 17,6 16,3 16,7 23,1 21,6 6 4 10 6 SSW 1013,5 37 0 0,8
19.09.2020 20:00:00 17,6 15,9 16,9 23,0 21,6 5 3 44 24 WNW 1013,1 8 0 3,0
19.09.2020 19:00:00 20,5 15,1 18,0 23,0 21,6 29 16 55 30 WSW 1012,6 16 4 0,2
19.09.2020 18:00:00 23,6 15,4 20,9 22,9 21,6 5 3 9 5 WNW 1010,7 20 0 0,0
19.09.2020 17:00:00 23,6 15,1 23,1 22,8 21,6 6 4 25 14 WNW 1010,7 57 0 0,0
19.09.2020 16:00:00 24,1 14,5 22,7 22,6 21,6 15 8 31 17 SSW 1011,1 36 3 0,0
19.09.2020 15:00:00 25,4 15,1 26,0 22,6 21,6 4 2 9 5 ESE 1011,2 60 0 0,0
19.09.2020 14:00:00 24,7 14,8 26,6 22,5 21,6 4 2 11 6 S 1011,7 60 0 0,0
19.09.2020 13:00:00 24,2 16,2 26,9 22,5 21,6 7 4 16 9 ESE 1011,9 60 15 0,0
19.09.2020 12:00:00 22,6 18,4 20,8 22,6 21,6 9 5 13 7 E 1012,1 46 25 0,0
19.09.2020 11:00:00 19,3 18,0 18,5 22,7 21,6 4 2 13 7 E 1012,4 34 0 0,0
19.09.2020 10:00:00 18,4 17,4 17,1 22,9 21,6 3 1 9 5 ENE 1011,8 42 0 0,0
19.09.2020 09:00:00 17,2 16,4 16,2 23,0 21,6 9 5 14 8 E 1011,5 32 0 0,0
19.09.2020 08:00:00 16,7 15,9 14,3 23,2 21,6 8 5 14 8 E 1011,6 33 0 0,0
19.09.2020 07:00:00 15,8 15,0 13,6 23,4 21,6 8 4 12 7 ENE 1011,2 52 0 0,2
19.09.2020 06:00:00 15,5 14,7 13,2 23,5 21,6 4 2 11 6 NE 1011,3 57 0 0,0
19.09.2020 05:00:00 16,2 15,2 13,5 23,7 21,6 4 2 9 5 E 1011,3 38 0 0,0
19.09.2020 04:00:00 16,7 15,9 15,6 23,8 21,6 4 2 11 6 ENE 1011,5 43 0 0,0
19.09.2020 03:00:00 16,5 15,5 13,5 24,0 21,6 5 3 9 5 E 1011,8 9 0 0,0
19.09.2020 02:00:00 16,8 15,5 14,5 24,1 21,6 4 2 9 5 NNE 1011,6 11 0 0,0
19.09.2020 01:00:00 18,3 17,0 17,2 24,2 21,6 5 3 12 6 ESE 1011,9 24 0 0,0
19.09.2020 00:00:00 18,6 17,3 17,5 24,2 21,6 8 4 11 6 ESE 1012,2 25 0 0,0
18.09.2020 23:00:00 18,8 17,1 17,9 24,2 21,6 7 4 11 6 ENE 1012,6 18 0 0,0
18.09.2020 22:00:00 19,8 17,0 18,3 24,3 21,6 8 4 40 22 E 1013,7 15 0 0,8
18.09.2020 21:00:00 22,7 19,7 20,5 24,2 21,6 7 4 10 6 SSW 1012,9 6 0 1,0
18.09.2020 20:00:00 23,7 17,9 21,9 24,2 21,6 4 2 7 4 W 1011,3 25 0 0,0
18.09.2020 19:00:00 25,3 17,7 24,7 24,1 21,6 5 3 17 9 ENE 1011,0 30 0 0,0
18.09.2020 18:00:00 26,6 17,4 27,2 24,1 21,5 10 6 20 11 E 1011,0 34 0 0,0
18.09.2020 17:00:00 27,2 17,1 28,2 24,1 21,6 12 7 18 10 ENE 1011,9 31 4 0,0
18.09.2020 16:00:00 25,7 18,1 26,0 24,1 21,6 9 5 14 8 NE 1012,2 29 0 0,0
18.09.2020 15:00:00 24,2 18,2 25,3 24,1 21,6 8 5 14 8 E 1012,3 20 0 0,0
18.09.2020 14:00:00 23,5 17,7 22,4 24,1 21,5 11 6 16 9 ENE 1012,4 30 0 0,0
18.09.2020 13:00:00 23,0 16,5 23,8 24,2 21,6 0 0 11 6 N 1012,9 31 0 0,0
18.09.2020 12:00:00 22,5 15,8 23,6 24,3 21,5 6 3 11 6 SSE 1012,6 31 0 0,0
18.09.2020 11:00:00 21,7 15,5 21,1 24,4 21,6 5 3 18 10 ENE 1011,7 35 0 0,0
18.09.2020 10:00:00 20,5 14,6 20,2 24,6 21,6 3 2 8 4 NNW 1012,3 34 0 0,0
18.09.2020 09:00:00 20,2 14,6 19,0 24,7 21,5 5 3 7 4 NNE 1011,0 37 0 0,0
18.09.2020 08:00:00 20,0 14,1 18,8 24,9 21,5 4 2 13 7 SE 1010,9 39 0 0,0
18.09.2020 07:00:00 19,4 13,8 17,5 25,1 21,5 8 4 12 6 E 1010,1 20 0 0,0
18.09.2020 06:00:00 18,0 13,7 14,8 25,2 21,5 8 5 13 7 ENE 1010,3 35 0 0,0
18.09.2020 05:00:00 18,2 12,6 14,9 25,4 21,5 7 4 8 5 ENE 1010,6 40 0 0,0
18.09.2020 04:00:00 20,0 13,2 16,5 25,6 21,5 5 3 13 7 E 1010,6 37 0 0,0
18.09.2020 03:00:00 19,6 12,6 16,8 25,7 21,5 10 6 14 7 NE 1010,8 47 0 0,0
18.09.2020 02:00:00 20,9 13,1 16,9 25,7 21,5 8 4 10 5 ENE 1011,1 54 0 0,0
18.09.2020 01:00:00 22,4 12,9 18,7 25,8 21,6 6 3 11 6 E 1010,9 55 0 0,0
18.09.2020 00:00:00 23,7 13,0 21,3 25,8 21,5 6 3 10 5 E 1011,3 53 0 0,0
17.09.2020 23:00:00 24,7 12,6 23,2 25,8 21,5 7 4 9 5 E 1011,5 49 0 0,0
17.09.2020 22:00:00 26,2 12,3 23,9 25,6 21,5 4 2 9 5 NE 1011,4 59 0 0,0
17.09.2020 21:00:00 27,5 11,5 26,0 25,5 21,5 7 4 11 6 NE 1011,1 60 0 0,0
17.09.2020 20:00:00 29,0 11,1 27,3 25,2 21,5 9 5 15 8 NE 1011,3 60 0 0,0
17.09.2020 19:00:00 31,9 10,6 31,3 25,0 21,5 11 6 22 12 ENE 1011,5 59 34 0,0
17.09.2020 18:00:00 33,8 11,0 36,9 24,7 21,5 15 8 23 13 E 1011,5 59 60 0,0
17.09.2020 17:00:00 34,4 11,5 38,9 24,4 21,5 14 8 30 16 E 1011,6 47 60 0,0
17.09.2020 16:00:00 34,6 12,3 39,4 24,1 21,5 18 10 31 17 ENE 1011,9 40 60 0,0
17.09.2020 15:00:00 34,1 12,4 38,7 23,9 21,5 21 11 43 23 ENE 1012,9 43 60 0,0
17.09.2020 14:00:00 33,0 13,6 37,6 23,9 21,5 16 9 32 17 E 1013,6 47 60 0,0
17.09.2020 13:00:00 31,3 14,0 35,6 23,9 21,5 13 7 21 11 ESE 1014,2 46 60 0,0
17.09.2020 12:00:00 28,1 15,4 30,7 23,9 21,5 10 5 16 9 E 1015,1 42 60 0,0
17.09.2020 11:00:00 25,0 15,0 25,8 24,1 21,5 10 6 18 10 E 1015,6 40 58 0,0
17.09.2020 10:00:00 21,3 14,5 20,3 24,3 21,5 8 4 14 7 E 1015,8 30 60 0,0
17.09.2020 09:00:00 17,7 13,8 13,9 24,5 21,5 4 2 8 4 ENE 1016,0 34 42 0,0
17.09.2020 08:00:00 14,7 12,0 13,2 24,7 21,5 6 4 12 6 NE 1015,9 31 0 0,0
17.09.2020 07:00:00 14,5 11,8 13,3 24,8 21,5 6 3 9 5 NE 1015,7 30 0 0,0
17.09.2020 06:00:00 16,8 13,3 13,4 25,1 21,5 2 1 7 4 SSE 1016,1 29 0 0,0
17.09.2020 05:00:00 16,0 12,9 13,5 25,2 21,5 5 3 9 5 ENE 1016,2 30 0 0,0
17.09.2020 04:00:00 16,6 12,9 14,1 25,4 21,5 4 2 7 4 NE 1016,5 34 0 0,0
17.09.2020 03:00:00 19,1 13,5 15,3 25,5 21,5 4 2 10 5 E 1016,7 37 0 0,0
17.09.2020 02:00:00 19,5 13,4 16,0 25,7 21,5 6 3 11 6 NE 1017,0 45 0 0,0
17.09.2020 01:00:00 20,6 13,8 17,8 25,7 21,5 8 4 16 9 NE 1017,3 49 0 0,0
17.09.2020 00:00:00 20,6 13,3 17,5 25,8 21,5 6 3 13 7 NE 1017,4 49 0 0,0
16.09.2020 23:00:00 20,7 13,2 17,8 25,8 21,5 8 4 11 6 NNE 1017,5 57 0 0,0
16.09.2020 22:00:00 22,6 13,9 18,4 25,7 21,5 0 0 10 6 N 1017,4 59 0 0,0
16.09.2020 21:00:00 24,6 14,1 19,1 25,5 21,5 6 3 8 4 NNE 1016,8 60 0 0,0
16.09.2020 20:00:00 29,1 13,3 24,9 25,3 21,6 5 3 14 8 E 1016,2 60 37 0,0
16.09.2020 19:00:00 32,3 13,0 33,8 25,0 21,7 11 6 23 12 E 1015,8 60 60 0,0
16.09.2020 18:00:00 33,2 12,2 37,8 24,7 21,7 10 5 21 11 E 1015,7 60 60 0,0
16.09.2020 17:00:00 33,9 11,7 39,5 24,3 21,5 13 7 24 13 E 1016,1 60 60 0,0
16.09.2020 16:00:00 33,7 13,2 39,6 24,1 21,8 10 5 23 12 E 1016,9 55 60 0,0
16.09.2020 15:00:00 33,3 13,4 38,5 23,9 21,4 16 9 32 17 ENE 1017,6 45 60 0,0
16.09.2020 14:00:00 32,6 14,7 36,5 23,8 21,4 16 9 26 14 E 1018,2 46 60 0,0
16.09.2020 13:00:00 30,5 15,4 34,8 23,8 21,4 13 7 23 12 ESE 1018,9 20 60 0,0
16.09.2020 12:00:00 28,6 17,5 31,8 23,9 21,4 13 7 20 11 E 1019,4 51 60 0,0
16.09.2020 11:00:00 24,5 17,2 27,1 24,0 21,4 5 3 10 5 ESE 1019,8 50 60 0,0
16.09.2020 10:00:00 20,7 16,9 20,2 24,2 21,4 5 3 8 4 E 1020,0 20 45 0,0
16.09.2020 09:00:00 17,1 16,0 14,1 24,4 21,4 4 2 8 4 ENE 1020,1 22 44 0,0
16.09.2020 08:00:00 14,7 13,6 12,5 24,6 21,4 5 3 7 4 NE 1019,9 19 0 0,0
16.09.2020 07:00:00 15,2 13,9 12,6 24,8 21,4 3 2 6 4 NE 1019,7 20 0 0,0
16.09.2020 06:00:00 15,3 13,7 13,5 25,0 21,4 6 3 7 4 ENE 1019,5 30 0 0,0
16.09.2020 05:00:00 15,7 14,1 13,1 25,1 21,4 0 0 6 4 N 1019,8 28 0 0,0
16.09.2020 04:00:00 15,7 13,7 13,4 25,3 21,4 5 3 6 3 NE 1019,7 34 0 0,0
16.09.2020 03:00:00 16,5 14,3 14,2 25,5 21,4 4 2 5 3 ENE 1019,8 30 0 0,0
16.09.2020 02:00:00 17,4 15,0 14,4 25,6 21,4 0 0 6 3 N 1020,0 34 0 0,0
16.09.2020 01:00:00 18,2 14,7 14,6 25,7 21,4 3 2 4 2 ENE 1019,9 39 0 0,0
16.09.2020 00:00:00 19,8 15,2 16,0 25,7 21,4 0 0 8 4 N 1019,7 47 0 0,0
15.09.2020 23:00:00 21,1 15,6 16,6 25,7 21,4 2 1 11 6 NNW 1019,6 56 0 0,0
15.09.2020 22:00:00 22,3 15,4 18,2 25,7 21,4 3 1 5 3 NNE 1019,3 57 0 0,0
15.09.2020 21:00:00 24,1 15,3 19,8 25,5 21,4 2 1 6 3 NE 1018,9 60 0 0,0
15.09.2020 20:00:00 28,8 15,0 27,0 25,3 21,5 4 2 9 5 ESE 1018,4 60 46 0,0
15.09.2020 19:00:00 30,3 15,2 33,5 25,1 21,6 4 2 9 5 SSE 1018,2 60 60 0,0
15.09.2020 18:00:00 31,0 14,6 36,9 24,8 21,6 5 3 12 6 SSW 1018,4 60 60 0,0
15.09.2020 17:00:00 31,1 15,1 38,1 24,6 21,4 5 3 14 8 E 1018,5 60 60 0,0
15.09.2020 16:00:00 30,0 15,3 36,8 24,4 21,4 6 3 16 9 SSE 1019,1 41 60 0,0
15.09.2020 15:00:00 28,6 17,8 35,4 24,3 21,3 9 5 20 11 E 1019,3 28 60 0,0
15.09.2020 14:00:00 26,8 18,6 29,1 24,3 21,3 6 4 13 7 E 1020,2 20 29 0,0
15.09.2020 13:00:00 24,5 19,3 27,3 24,4 21,5 6 3 14 8 E 1020,6 29 4 0,0
15.09.2020 12:00:00 23,6 19,9 23,6 24,4 21,5 8 4 12 6 SE 1020,9 20 0 0,0
15.09.2020 11:00:00 22,7 19,7 24,0 24,5 21,5 5 3 12 6 SE 1020,9 17 1 0,0
15.09.2020 10:00:00 21,8 19,7 21,8 24,7 21,5 4 2 14 7 SSE 1020,4 6 0 0,0
15.09.2020 09:00:00 21,6 19,7 20,8 24,8 21,5 6 4 14 8 SSW 1020,4 18 0 0,0
15.09.2020 08:00:00 21,3 19,6 20,6 24,9 21,5 9 5 14 8 W 1019,9 17 0 0,0
15.09.2020 07:00:00 21,1 19,2 20,6 25,0 21,5 8 4 15 8 W 1019,7 18 0 0,0
15.09.2020 06:00:00 21,5 19,4 20,8 25,1 21,5 8 4 11 6 WSW 1019,6 19 0 0,0
15.09.2020 05:00:00 21,1 19,0 20,0 25,2 21,5 7 4 13 7 WSW 1019,4 18 0 0,0
15.09.2020 04:00:00 20,2 17,6 19,1 25,4 21,5 9 5 23 12 W 1019,2 19 0 0,0
15.09.2020 03:00:00 21,3 16,7 20,1 25,5 21,4 15 8 25 13 W 1019,2 32 0 0,0
15.09.2020 02:00:00 23,3 14,8 19,7 25,6 21,5 3 2 13 7 SSE 1018,5 60 0 0,0
15.09.2020 01:00:00 23,9 14,6 22,7 25,6 21,4 10 5 16 8 E 1018,0 60 0 0,0
15.09.2020 00:00:00 25,5 14,0 21,3 25,7 21,5 11 6 19 10 E 1017,9 60 0 0,0
14.09.2020 23:00:00 23,9 13,4 20,7 25,6 21,4 8 4 14 8 E 1017,9 60 0 0,0
14.09.2020 22:00:00 25,4 13,3 21,6 25,5 21,4 4 2 13 7 ENE 1017,6 60 0 0,0

tt = Température de l'air
td = dewpoint
tt 5cm = Température de l'air 5cm
tt -20cm = Température de l'air -20cm
tt -100cm = Température de l'air -100cm
ff = Vitesse du vent
fx = gusts
dd = Direction du vent
ppp = reduced air pressure
vv = visibility
sd = Ensoleillement
rr = Quantités de précipitations

stations d'obs. à proximité